,,Stat5,,Stat1,,Stat2,,Stat3,,Stat4,,Wind1,,Wind1,
time,status,PA1M_AVG,status,PR1M_SUM,status,RH1M_AVG,status,SR1M_AVG,status,TA1M_AVG,status,W1dAve1m,status,W1sAve1m,
2001-10-05, 00:00:01,VALID,919.356,VALID,0,VALID,98.8978,VALID,-0.101885,VALID,18.2784,VALID,347,VALID,0.839844,
2001-10-05, 00:01:00,VALID,919.359,VALID,0.2,VALID,98.8749,VALID,-0.101885,VALID,18.2528,VALID,327,VALID,0.656883,
2001-10-05, 00:02:00,VALID,919.344,VALID,0,VALID,98.8965,VALID,-0.101885,VALID,18.2526,VALID,284,VALID,0.267736,
2001-10-05, 00:03:00,VALID,919.328,VALID,0,VALID,98.9219,VALID,-0.101885,VALID,18.2824,VALID,46,VALID,0.0907452,
2001-10-05, 00:04:00,VALID,919.322,VALID,0,VALID,98.9308,VALID,-0.0849042,VALID,18.2817,VALID,21,VALID,0.181799,
2001-10-05, 00:05:00,VALID,919.318,VALID,0,VALID,98.9525,VALID,-0.0849042,VALID,18.2981,VALID,318,VALID,0.491016,
2001-10-05, 00:06:00,VALID,919.308,VALID,0,VALID,98.866,VALID,-0.101885,VALID,18.2332,VALID,326,VALID,0.582698,
2001-10-05, 00:07:00,VALID,919.293,VALID,0,VALID,98.8558,VALID,-0.0849042,VALID,18.2464,VALID,23,VALID,0.884252,
2001-10-05, 00:08:00,VALID,919.272,VALID,0,VALID,98.8698,VALID,-0.0849042,VALID,18.2459,VALID,352,VALID,0.842928,
2001-10-05, 00:09:00,VALID,919.261,VALID,0,VALID,98.8609,VALID,-0.0679233,VALID,18.227,VALID,13,VALID,0.709766,
2001-10-05, 00:10:00,VALID,919.248,VALID,0,VALID,98.9003,VALID,-0.101885,VALID,18.2591,VALID,350,VALID,0.0925164,
2001-10-05, 00:11:00,VALID,919.229,VALID,0,VALID,98.8596,VALID,-0.101885,VALID,18.2565,VALID,268,VALID,0.581414,
2001-10-05, 00:12:00,VALID,919.22,VALID,0,VALID,98.8558,VALID,-0.0849042,VALID,18.2528,VALID,20,VALID,0.212054,
2001-10-05, 00:13:00,VALID,919.22,VALID,0,VALID,98.8749,VALID,-0.0849042,VALID,18.2655,VALID,35,VALID,0.399523,
2001-10-05, 00:14:00,VALID,919.202,VALID,0,VALID,98.8952,VALID,-0.101885,VALID,18.2983,VALID,360,VALID,0.468099,
2001-10-05, 00:15:00,VALID,919.188,VALID,0,VALID,98.8952,VALID,-0.0849042,VALID,18.3144,VALID,343,VALID,0.386242,
2001-10-05, 00:16:00,VALID,919.164,VALID,0,VALID,98.8431,VALID,-0.101885,VALID,18.2787,VALID,23,VALID,1.05279,
2001-10-05, 00:17:00,VALID,919.136,VALID,0.2,VALID,98.8723,VALID,-0.0169808,VALID,18.2937,VALID,4,VALID,0.759868,
2001-10-05, 00:18:00,VALID,919.119,VALID,0,VALID,98.8329,VALID,0,VALID,18.2808,VALID,315,VALID,0.780222,
2001-10-05, 00:19:00,VALID,919.111,VALID,0,VALID,98.7617,VALID,-0.0169808,VALID,18.2614,VALID,338,VALID,0.727706,
2001-10-05, 00:20:00,VALID,919.085,VALID,0,VALID,98.7147,VALID,0,VALID,18.2448,VALID,355,VALID,0.767064,
2001-10-05, 00:21:00,VALID,919.089,VALID,0,VALID,98.7096,VALID,0,VALID,18.2549,VALID,358,VALID,0.764597,
2001-10-05, 00:22:00,VALID,919.077,VALID,0,VALID,98.7019,VALID,-0.0509425,VALID,18.2711,VALID,2,VALID,0.600043,
2001-10-05, 00:23:00,VALID,919.055,VALID,0,VALID,98.6663,VALID,-0.0509425,VALID,18.2678,VALID,342,VALID,0.999367,
2001-10-05, 00:24:00,VALID,919.04,VALID,0,VALID,98.5735,VALID,-0.0169808,VALID,18.248,VALID,360,VALID,1.06741,
2001-10-05, 00:25:00,VALID,919.029,VALID,0,VALID,98.5532,VALID,0,VALID,18.2648,VALID,1,VALID,0.746505,
2001-10-05, 00:26:00,VALID,919.005,VALID,0,VALID,98.5392,VALID,0,VALID,18.2644,VALID,3,VALID,1.19996,
2001-10-05, 00:27:00,VALID,918.999,VALID,0,VALID,98.5188,VALID,0,VALID,18.2676,VALID,358,VALID,0.977179,
2001-10-05, 00:28:00,VALID,918.998,VALID,0,VALID,98.5519,VALID,0,VALID,18.287,VALID,9,VALID,0.731419,
2001-10-05, 00:29:00,VALID,918.982,VALID,0,VALID,98.5557,VALID,0,VALID,18.3034,VALID,11,VALID,0.730859,
2001-10-05, 00:30:00,VALID,918.974,VALID,0,VALID,98.4743,VALID,0,VALID,18.287,VALID,11,VALID,1.01542,
2001-10-05, 00:31:00,VALID,918.945,VALID,0,VALID,98.4692,VALID,0.0169808,VALID,18.2801,VALID,8,VALID,0.964844,
2001-10-05, 00:32:00,VALID,918.933,VALID,0,VALID,98.3815,VALID,-0.0169808,VALID,18.2775,VALID,345,VALID,1.05405,
2001-10-05, 00:33:00,VALID,918.94,VALID,0,VALID,98.3523,VALID,0,VALID,18.2676,VALID,351,VALID,0.486698,
2001-10-05, 00:34:00,VALID,918.934,VALID,0,VALID,98.3434,VALID,0,VALID,18.2838,VALID,3,VALID,1.14982,
2001-10-05, 00:35:00,VALID,918.918,VALID,0,VALID,98.2505,VALID,-0.0169808,VALID,18.2974,VALID,4,VALID,1.14551,
2001-10-05, 00:36:00,VALID,918.898,VALID,0,VALID,98.1793,VALID,-0.0679233,VALID,18.3038,VALID,1,VALID,1.03646,
2001-10-05, 00:37:00,VALID,918.879,VALID,0,VALID,98.0941,VALID,-0.0509425,VALID,18.3071,VALID,3,VALID,0.608553,
2001-10-05, 00:38:00,VALID,918.855,VALID,0.2,VALID,97.9873,VALID,-0.0679233,VALID,18.3101,VALID,8,VALID,0.805921,
2001-10-05, 00:39:00,VALID,918.839,VALID,0,VALID,98.0127,VALID,0,VALID,18.3493,VALID,16,VALID,0.701172,
2001-10-05, 00:40:00,VALID,918.827,VALID,0,VALID,98.0445,VALID,-0.0169808,VALID,18.3647,VALID,7,VALID,0.554071,
2001-10-05, 00:41:00,VALID,918.797,VALID,0,VALID,97.9555,VALID,-0.0169808,VALID,18.3716,VALID,10,VALID,0.962171,
2001-10-05, 00:42:00,VALID,918.785,VALID,0,VALID,97.7635,VALID,-0.0169808,VALID,18.3488,VALID,16,VALID,0.870988,
2001-10-05, 00:43:00,VALID,918.745,VALID,0,VALID,97.6923,VALID,0,VALID,18.359,VALID,11,VALID,0.68316,
2001-10-05, 00:44:00,VALID,918.72,VALID,0,VALID,97.6109,VALID,-0.0339617,VALID,18.3613,VALID,14,VALID,0.945313,
2001-10-05, 00:45:00,VALID,918.71,VALID,0,VALID,97.3515,VALID,0,VALID,18.3779,VALID,11,VALID,1.85556,
2001-10-05, 00:46:00,VALID,918.702,VALID,0,VALID,97.0196,VALID,-0.0509425,VALID,18.3938,VALID,14,VALID,1.15034,
2001-10-05, 00:47:00,VALID,918.677,VALID,0,VALID,96.9675,VALID,-0.0509425,VALID,18.4425,VALID,21,VALID,0.969161,
2001-10-05, 00:48:00,VALID,918.649,VALID,0,VALID,96.6686,VALID,-0.0679233,VALID,18.4618,VALID,11,VALID,1.12829,
2001-10-05, 00:49:00,VALID,918.629,VALID,0,VALID,96.4805,VALID,-0.0509425,VALID,18.4784,VALID,8,VALID,0.854802,
2001-10-05, 00:50:00,VALID,918.606,VALID,0,VALID,96.3393,VALID,-0.0339617,VALID,18.4778,VALID,5,VALID,0.939967,
2001-10-05, 00:51:00,VALID,918.586,VALID,0,VALID,96.338,VALID,-0.0169808,VALID,18.4877,VALID,17,VALID,0.261513,
2001-10-05, 00:52:00,VALID,918.56,VALID,0,VALID,96.4525,VALID,-0.0849042,VALID,18.5075,VALID,11,VALID,0.934245,
2001-10-05, 00:53:00,VALID,918.532,VALID,0,VALID,96.4995,VALID,-0.0339617,VALID,18.4976,VALID,360,VALID,0.804476,
2001-10-05, 00:54:00,VALID,918.518,VALID,0.2,VALID,96.4054,VALID,-0.0339617,VALID,18.4745,VALID,355,VALID,0.788616,
2001-10-05, 00:55:00,VALID,918.502,VALID,0,VALID,96.2783,VALID,0,VALID,18.4658,VALID,309,VALID,0.617804,
2001-10-05, 00:56:00,VALID,918.5,VALID,0,VALID,96.2312,VALID,-0.0339617,VALID,18.4402,VALID,298,VALID,0.889358,
2001-10-05, 00:57:00,VALID,918.482,VALID,0,VALID,96.2185,VALID,-0.0509425,VALID,18.4171,VALID,325,VALID,0.527961,
2001-10-05, 00:58:00,VALID,918.477,VALID,0,VALID,96.3037,VALID,-0.0509425,VALID,18.4231,VALID,18,VALID,0.865709,
2001-10-05, 00:59:00,VALID,918.463,VALID,0,VALID,96.3965,VALID,-0.0509425,VALID,18.4494,VALID,8,VALID,0.997852,
2001-10-05, 01:00:00,VALID,918.453,VALID,0,VALID,96.3101,VALID,0,VALID,18.4358,VALID,4,VALID,0.95662,
2001-10-05, 01:01:00,VALID,918.454,VALID,0,VALID,96.4385,VALID,-0.0679233,VALID,18.4427,VALID,9,VALID,1.15148,
2001-10-05, 01:02:00,VALID,918.444,VALID,0,VALID,96.3953,VALID,-0.0339617,VALID,18.4332,VALID,15,VALID,1.71959,
2001-10-05, 01:03:00,VALID,918.428,VALID,0,VALID,96.2058,VALID,0,VALID,18.4332,VALID,18,VALID,1.99557,
2001-10-05, 01:04:00,VALID,918.426,VALID,0,VALID,96.2083,VALID,0,VALID,18.4653,VALID,20,VALID,1.36903,
2001-10-05, 01:05:00,VALID,918.416,VALID,0,VALID,96.2554,VALID,-0.0169808,VALID,18.4849,VALID,11,VALID,1.06582,
2001-10-05, 01:06:00,VALID,918.407,VALID,0,VALID,96.1473,VALID,0,VALID,18.4621,VALID,4,VALID,0.664864,
2001-10-05, 01:07:00,VALID,918.393,VALID,0,VALID,96.0913,VALID,-0.0169808,VALID,18.4358,VALID,346,VALID,0.834498,
2001-10-05, 01:08:00,VALID,918.374,VALID,0,VALID,96.029,VALID,0,VALID,18.4169,VALID,271,VALID,0.52097,
2001-10-05, 01:09:00,VALID,918.371,VALID,0,VALID,96.1587,VALID,-0.0679233,VALID,18.4205,VALID,259,VALID,0.725781,
2001-10-05, 01:10:00,VALID,918.349,VALID,0,VALID,95.9731,VALID,-0.0509425,VALID,18.3816,VALID,325,VALID,0.828742,
2001-10-05, 01:11:00,VALID,918.337,VALID,0,VALID,96.1536,VALID,-0.0679233,VALID,18.4012,VALID,8,VALID,0.545847,
2001-10-05, 01:12:00,VALID,918.317,VALID,0,VALID,95.9655,VALID,-0.0679233,VALID,18.4042,VALID,8,VALID,1.20629,
2001-10-05, 01:13:00,VALID,918.289,VALID,0,VALID,95.8637,VALID,-0.0509425,VALID,18.4367,VALID,22,VALID,1.27734,
2001-10-05, 01:14:00,VALID,918.26,VALID,0,VALID,95.7505,VALID,-0.0679233,VALID,18.4556,VALID,28,VALID,1.52604,
2001-10-05, 01:15:00,VALID,918.234,VALID,0,VALID,95.7175,VALID,-0.0509425,VALID,18.4884,VALID,18,VALID,1.2378,
2001-10-05, 01:16:00,VALID,918.209,VALID,0,VALID,95.6984,VALID,-0.0679233,VALID,18.4884,VALID,20,VALID,0.821157,
2001-10-05, 01:17:00,VALID,918.186,VALID,0,VALID,95.6208,VALID,-0.0679233,VALID,18.4946,VALID,22,VALID,0.820313,
2001-10-05, 01:18:00,VALID,918.154,VALID,0,VALID,95.6692,VALID,-0.0339617,VALID,18.4914,VALID,17,VALID,0.814762,
2001-10-05, 01:19:00,VALID,918.129,VALID,0,VALID,95.8714,VALID,-0.0509425,VALID,18.5043,VALID,13,VALID,0.782774,
2001-10-05, 01:20:00,VALID,918.1,VALID,0,VALID,95.9451,VALID,-0.0339617,VALID,18.5107,VALID,17,VALID,0.73088,
2001-10-05, 01:21:00,VALID,918.073,VALID,0,VALID,96.1002,VALID,-0.0169808,VALID,18.5207,VALID,12,VALID,0.584087,
2001-10-05, 01:22:00,VALID,918.045,VALID,0,VALID,96.015,VALID,-0.0169808,VALID,18.5045,VALID,6,VALID,0.414714,
2001-10-05, 01:23:00,VALID,918.008,VALID,0,VALID,95.9184,VALID,-0.0849042,VALID,18.4941,VALID,20,VALID,0.549831,
2001-10-05, 01:24:00,VALID,917.992,VALID,0,VALID,95.9705,VALID,-0.0339617,VALID,18.5043,VALID,18,VALID,0.509152,
2001-10-05, 01:25:00,VALID,917.983,VALID,0,VALID,96.0201,VALID,-0.0339617,VALID,18.514,VALID,22,VALID,0.601768,
2001-10-05, 01:26:00,VALID,917.961,VALID,0,VALID,96.043,VALID,-0.0509425,VALID,18.5135,VALID,22,VALID,0.700591,
2001-10-05, 01:27:00,VALID,917.958,VALID,0,VALID,96.1333,VALID,-0.0339617,VALID,18.5363,VALID,16,VALID,0.447985,
2001-10-05, 01:28:00,VALID,917.956,VALID,0,VALID,96.1511,VALID,-0.0679233,VALID,18.5493,VALID,11,VALID,0.454181,
2001-10-05, 01:29:00,VALID,917.944,VALID,0,VALID,95.9451,VALID,-0.0679233,VALID,18.5299,VALID,18,VALID,0.855469,
2001-10-05, 01:30:00,VALID,917.918,VALID,0,VALID,95.5382,VALID,-0.0339617,VALID,18.5269,VALID,23,VALID,0.84889,
2001-10-05, 01:31:00,VALID,917.91,VALID,0,VALID,95.4772,VALID,-0.0679233,VALID,18.5301,VALID,25,VALID,0.297092,
2001-10-05, 01:32:00,VALID,917.909,VALID,0,VALID,95.4555,VALID,-0.0339617,VALID,18.5391,VALID,39,VALID,0.231419,
2001-10-05, 01:33:00,VALID,917.891,VALID,0,VALID,95.3729,VALID,-0.101885,VALID,18.5433,VALID,44,VALID,0.164907,
2001-10-05, 01:34:00,VALID,917.88,VALID,0,VALID,95.3716,VALID,-0.0679233,VALID,18.5463,VALID,36,VALID,0.429458,
2001-10-05, 01:35:00,VALID,917.865,VALID,0,VALID,95.1809,VALID,-0.0849042,VALID,18.5167,VALID,48,VALID,0.224805,
2001-10-05, 01:36:00,VALID,917.857,VALID,0,VALID,95.3831,VALID,-0.101885,VALID,18.5398,VALID,49,VALID,0.0138221,
2001-10-05, 01:37:00,VALID,917.838,VALID,0,VALID,95.3894,VALID,-0.0679233,VALID,18.549,VALID,49,VALID,0,
2001-10-05, 01:38:00,VALID,917.822,VALID,0,VALID,95.4326,VALID,-0.0849042,VALID,18.5463,VALID,49,VALID,0,
2001-10-05, 01:39:00,VALID,917.799,VALID,0,VALID,95.5369,VALID,-0.0679233,VALID,18.556,VALID,54,VALID,0,
2001-10-05, 01:40:00,VALID,917.777,VALID,0,VALID,95.4644,VALID,-0.0679233,VALID,18.5488,VALID,73,VALID,0,
2001-10-05, 01:41:00,VALID,917.777,VALID,0,VALID,95.6361,VALID,-0.0849042,VALID,18.5562,VALID,73,VALID,0,
2001-10-05, 01:42:00,VALID,917.761,VALID,0,VALID,95.8065,VALID,-0.0339617,VALID,18.5624,VALID,73,VALID,0,
2001-10-05, 01:43:00,VALID,917.762,VALID,0,VALID,95.9298,VALID,-0.0679233,VALID,18.5682,VALID,73,VALID,0,
2001-10-05, 01:44:00,VALID,917.749,VALID,0,VALID,95.4683,VALID,-0.0849042,VALID,18.5622,VALID,91,VALID,0.199002,
2001-10-05, 01:45:00,VALID,917.752,VALID,0,VALID,95.2661,VALID,-0.0849042,VALID,18.5232,VALID,104,VALID,0.411204,
2001-10-05, 01:46:00,VALID,917.739,VALID,0,VALID,95.3284,VALID,-0.0679233,VALID,18.5331,VALID,109,VALID,0.584671,
2001-10-05, 01:47:01,VALID,917.737,VALID,0,VALID,95.1542,VALID,-0.0679233,VALID,18.5172,VALID,110,VALID,0.618627,
2001-10-05, 01:48:00,VALID,917.724,VALID,0,VALID,95.4581,VALID,-0.0339617,VALID,18.5267,VALID,128,VALID,0.665707,
2001-10-05, 01:49:00,VALID,917.735,VALID,0,VALID,95.6959,VALID,-0.0849042,VALID,18.5297,VALID,132,VALID,0.635861,
2001-10-05, 01:50:01,VALID,917.714,VALID,0,VALID,96.1778,VALID,-0.0849042,VALID,18.5465,VALID,134,VALID,0.778988,
2001-10-05, 01:51:00,VALID,917.71,VALID,0,VALID,96.572,VALID,-0.0849042,VALID,18.5624,VALID,124,VALID,0.833265,
2001-10-05, 01:52:01,VALID,917.717,VALID,0,VALID,96.8823,VALID,-0.0849042,VALID,18.5622,VALID,127,VALID,0.843099,
2001-10-05, 01:53:00,VALID,917.71,VALID,0,VALID,97.0883,VALID,-0.0509425,VALID,18.5361,VALID,137,VALID,0.597973,
2001-10-05, 01:54:00,VALID,917.705,VALID,0,VALID,97.2078,VALID,-0.0509425,VALID,18.5133,VALID,131,VALID,0.559152,
2001-10-05, 01:55:00,VALID,917.686,VALID,0,VALID,97.293,VALID,-0.0509425,VALID,18.4842,VALID,122,VALID,0.936472,
2001-10-05, 01:56:00,VALID,917.669,VALID,0,VALID,97.3362,VALID,-0.0339617,VALID,18.436,VALID,105,VALID,1.13661,
2001-10-05, 01:57:01,VALID,917.655,VALID,0,VALID,97.499,VALID,-0.0679233,VALID,18.3809,VALID,112,VALID,0.987664,
2001-10-05, 01:58:00,VALID,917.629,VALID,0,VALID,97.6834,VALID,-0.0849042,VALID,18.3488,VALID,109,VALID,0.821579,
2001-10-05, 01:59:00,VALID,917.621,VALID,0,VALID,97.8271,VALID,-0.0509425,VALID,18.3299,VALID,115,VALID,0.792578,
2001-10-05, 02:00:00,VALID,917.61,VALID,0,VALID,97.9568,VALID,-0.0169808,VALID,18.3098,VALID,127,VALID,0.567434,
2001-10-05, 02:01:00,VALID,917.614,VALID,0,VALID,98.0534,VALID,-0.0339617,VALID,18.3034,VALID,147,VALID,0.621745,
2001-10-05, 02:02:01,VALID,917.603,VALID,0,VALID,98.1653,VALID,0.0509425,VALID,18.3091,VALID,151,VALID,0.526394,
2001-10-05, 02:03:00,VALID,917.607,VALID,0,VALID,98.1857,VALID,0.0169808,VALID,18.3024,VALID,143,VALID,0.561022,
2001-10-05, 02:04:00,VALID,917.602,VALID,0,VALID,98.1895,VALID,0.0339617,VALID,18.2958,VALID,144,VALID,0.573759,
2001-10-05, 02:05:00,VALID,917.595,VALID,0,VALID,98.1552,VALID,0,VALID,18.2863,VALID,122,VALID,0.65625,
2001-10-05, 02:06:00,VALID,917.595,VALID,0,VALID,98.1323,VALID,0.0339617,VALID,18.2796,VALID,121,VALID,0.616386,
2001-10-05, 02:07:00,VALID,917.594,VALID,0,VALID,98.1285,VALID,0.0339617,VALID,18.2831,VALID,116,VALID,0.642475,
2001-10-05, 02:08:00,VALID,917.589,VALID,0,VALID,98.0051,VALID,0.0509425,VALID,18.2667,VALID,100,VALID,0.815995,
2001-10-05, 02:09:00,VALID,917.587,VALID,0,VALID,97.85,VALID,0.0509425,VALID,18.2533,VALID,104,VALID,0.856445,
2001-10-05, 02:10:00,VALID,917.587,VALID,0,VALID,97.7177,VALID,0.0849042,VALID,18.2632,VALID,106,VALID,0.7206,
2001-10-05, 02:11:00,VALID,917.584,VALID,0,VALID,97.6961,VALID,0.0849042,VALID,18.2759,VALID,110,VALID,0.515214,
2001-10-05, 02:12:00,VALID,917.589,VALID,0,VALID,97.7266,VALID,0.0339617,VALID,18.3119,VALID,130,VALID,0.480997,
2001-10-05, 02:13:00,VALID,917.583,VALID,0,VALID,97.691,VALID,0.0339617,VALID,18.3216,VALID,124,VALID,0.37717,
2001-10-05, 02:14:00,VALID,917.589,VALID,0,VALID,97.6452,VALID,0.0679233,VALID,18.3211,VALID,112,VALID,0.849175,
2001-10-05, 02:15:01,VALID,917.567,VALID,0,VALID,97.5359,VALID,0.0509425,VALID,18.3218,VALID,110,VALID,0.931784,
2001-10-05, 02:16:00,VALID,917.56,VALID,0,VALID,97.5321,VALID,0.0509425,VALID,18.3052,VALID,97,VALID,0.852618,
2001-10-05, 02:17:01,VALID,917.549,VALID,0,VALID,97.5384,VALID,-0.0339617,VALID,18.3089,VALID,89,VALID,0.86616,
2001-10-05, 02:18:00,VALID,917.542,VALID,0,VALID,97.4329,VALID,-0.0169808,VALID,18.3202,VALID,101,VALID,0.935855,
2001-10-05, 02:19:01,VALID,917.525,VALID,0,VALID,97.4303,VALID,-0.0339617,VALID,18.3066,VALID,99,VALID,0.883956,
2001-10-05, 02:20:01,VALID,917.516,VALID,0,VALID,97.5015,VALID,-0.0339617,VALID,18.3101,VALID,105,VALID,0.735609,
2001-10-05, 02:21:00,VALID,917.508,VALID,0,VALID,97.6274,VALID,-0.0169808,VALID,18.3232,VALID,91,VALID,0.437294,
2001-10-05, 02:22:01,VALID,917.492,VALID,0,VALID,97.705,VALID,-0.0169808,VALID,18.326,VALID,98,VALID,0.489366,
2001-10-05, 02:23:00,VALID,917.475,VALID,0,VALID,97.7368,VALID,-0.0169808,VALID,18.3128,VALID,100,VALID,0.664485,
2001-10-05, 02:24:00,VALID,917.458,VALID,0,VALID,97.7508,VALID,0,VALID,18.3098,VALID,108,VALID,0.652679,
2001-10-05, 02:25:00,VALID,917.446,VALID,0,VALID,97.7813,VALID,-0.0169808,VALID,18.2971,VALID,116,VALID,0.83162,
2001-10-05, 02:26:00,VALID,917.432,VALID,0.2,VALID,97.7877,VALID,-0.0339617,VALID,18.2842,VALID,110,VALID,0.775338,
2001-10-05, 02:27:01,VALID,917.428,VALID,0,VALID,97.808,VALID,-0.0509425,VALID,18.2775,VALID,111,VALID,0.652755,
2001-10-05, 02:28:00,VALID,917.405,VALID,0,VALID,97.8182,VALID,-0.0169808,VALID,18.2646,VALID,93,VALID,0.447424,
2001-10-05, 02:29:00,VALID,917.395,VALID,0,VALID,97.9085,VALID,0,VALID,18.2874,VALID,92,VALID,0.473437,
2001-10-05, 02:30:00,VALID,917.383,VALID,0,VALID,97.869,VALID,0,VALID,18.2803,VALID,83,VALID,0.409539,
2001-10-05, 02:31:00,VALID,917.368,VALID,0,VALID,97.8093,VALID,-0.0509425,VALID,18.2676,VALID,84,VALID,0.429688,
2001-10-05, 02:32:01,VALID,917.353,VALID,0,VALID,97.8233,VALID,0,VALID,18.2676,VALID,75,VALID,0.390836,
2001-10-05, 02:33:00,VALID,917.346,VALID,0,VALID,97.9161,VALID,0.0169808,VALID,18.2808,VALID,69,VALID,0.333193,
2001-10-05, 02:34:00,VALID,917.345,VALID,0,VALID,97.9759,VALID,0,VALID,18.2967,VALID,57,VALID,0.275735,
2001-10-05, 02:35:00,VALID,917.345,VALID,0,VALID,98.0318,VALID,0,VALID,18.3126,VALID,46,VALID,0.192773,
2001-10-05, 02:36:00,VALID,917.349,VALID,0,VALID,98.0255,VALID,0.0169808,VALID,18.3158,VALID,45,VALID,0.139623,
2001-10-05, 02:37:00,VALID,917.352,VALID,0,VALID,98.0738,VALID,0,VALID,18.3354,VALID,38,VALID,0,
2001-10-05, 02:38:00,VALID,917.342,VALID,0,VALID,98.1145,VALID,0,VALID,18.3382,VALID,38,VALID,0,
2001-10-05, 02:39:00,VALID,917.335,VALID,0,VALID,98.1361,VALID,0,VALID,18.358,VALID,38,VALID,0,
2001-10-05, 02:40:00,VALID,917.322,VALID,0,VALID,98.1399,VALID,0.0169808,VALID,18.361,VALID,38,VALID,0,
2001-10-05, 02:41:00,VALID,917.303,VALID,0,VALID,98.1323,VALID,0,VALID,18.3608,VALID,38,VALID,0,
2001-10-05, 02:42:00,VALID,917.295,VALID,0,VALID,98.0369,VALID,0.0339617,VALID,18.3608,VALID,38,VALID,0,
2001-10-05, 02:43:00,VALID,917.292,VALID,0,VALID,97.9492,VALID,0.0339617,VALID,18.3447,VALID,43,VALID,0.0121528,
2001-10-05, 02:44:00,VALID,917.279,VALID,0,VALID,97.9924,VALID,0.0339617,VALID,18.3417,VALID,103,VALID,0.191189,
2001-10-05, 02:45:01,VALID,917.272,VALID,0,VALID,98.0496,VALID,0.0339617,VALID,18.3712,VALID,151,VALID,0.505716,
2001-10-05, 02:46:00,VALID,917.267,VALID,0,VALID,97.9263,VALID,0.0169808,VALID,18.3546,VALID,152,VALID,0.595228,
2001-10-05, 02:47:01,VALID,917.263,VALID,0,VALID,97.7673,VALID,0,VALID,18.329,VALID,155,VALID,0.652961,
2001-10-05, 02:48:00,VALID,917.24,VALID,0,VALID,97.8004,VALID,0,VALID,18.3225,VALID,147,VALID,0.599712,
2001-10-05, 02:49:01,VALID,917.232,VALID,0,VALID,97.9034,VALID,0.0339617,VALID,18.3322,VALID,145,VALID,0.439787,
2001-10-05, 02:50:01,VALID,917.2,VALID,0,VALID,97.9848,VALID,0.0339617,VALID,18.3643,VALID,158,VALID,0.410979,
2001-10-05, 02:51:00,VALID,917.193,VALID,0,VALID,98.014,VALID,0.0339617,VALID,18.3804,VALID,149,VALID,0.319079,
2001-10-05, 02:52:01,VALID,917.169,VALID,0,VALID,98.0242,VALID,0,VALID,18.3871,VALID,142,VALID,0.0505642,
2001-10-05, 02:53:00,VALID,917.141,VALID,0,VALID,98.0433,VALID,0.0339617,VALID,18.4035,VALID,141,VALID,0,
2001-10-05, 02:54:00,VALID,917.128,VALID,0,VALID,98.0738,VALID,0.0169808,VALID,18.4062,VALID,141,VALID,0,
2001-10-05, 02:55:00,VALID,917.095,VALID,0,VALID,98.1081,VALID,0,VALID,18.4129,VALID,118,VALID,0,
2001-10-05, 02:56:00,VALID,917.07,VALID,0,VALID,98.173,VALID,0.0509425,VALID,18.4383,VALID,68,VALID,0,
2001-10-05, 02:57:01,VALID,917.043,VALID,0,VALID,98.206,VALID,0.0509425,VALID,18.451,VALID,62,VALID,0,
2001-10-05, 02:58:00,VALID,917.024,VALID,0,VALID,98.2658,VALID,0.0169808,VALID,18.4805,VALID,42,VALID,0.34016,
2001-10-05, 02:59:00,VALID,916.984,VALID,0,VALID,98.2836,VALID,0.0169808,VALID,18.5034,VALID,24,VALID,0.506055,
2001-10-05, 03:00:00,VALID,916.949,VALID,0,VALID,98.2849,VALID,0.0509425,VALID,18.5034,VALID,24,VALID,0.61472,
2001-10-05, 03:01:00,VALID,916.931,VALID,0,VALID,98.3065,VALID,0,VALID,18.4997,VALID,23,VALID,0.791016,
2001-10-05, 03:02:01,VALID,916.9,VALID,0,VALID,98.2454,VALID,0,VALID,18.4837,VALID,21,VALID,0.699113,
2001-10-05, 03:03:00,VALID,916.887,VALID,0,VALID,98.1768,VALID,0.0339617,VALID,18.4577,VALID,23,VALID,0.802576,
2001-10-05, 03:04:00,VALID,916.884,VALID,0,VALID,98.0865,VALID,0,VALID,18.4194,VALID,16,VALID,0.840533,
2001-10-05, 03:05:00,VALID,916.856,VALID,0,VALID,97.9886,VALID,0.0339617,VALID,18.3707,VALID,21,VALID,0.962695,
2001-10-05, 03:06:00,VALID,916.851,VALID,0,VALID,97.9034,VALID,0,VALID,18.332,VALID,21,VALID,0.711538,
2001-10-05, 03:07:00,VALID,916.853,VALID,0,VALID,97.8436,VALID,0.0339617,VALID,18.3158,VALID,10,VALID,0.843544,
2001-10-05, 03:08:00,VALID,916.845,VALID,0,VALID,97.6936,VALID,0.0509425,VALID,18.2736,VALID,2,VALID,0.468956,
2001-10-05, 03:09:00,VALID,916.832,VALID,0,VALID,97.7012,VALID,0.0339617,VALID,18.2542,VALID,349,VALID,0.26875,
2001-10-05, 03:10:00,VALID,916.823,VALID,0,VALID,97.7648,VALID,0.0509425,VALID,18.2575,VALID,317,VALID,0.117804,
2001-10-05, 03:11:00,VALID,916.829,VALID,0,VALID,97.8093,VALID,0.0339617,VALID,18.2478,VALID,311,VALID,0.098273,
2001-10-05, 03:12:00,VALID,916.822,VALID,0,VALID,97.8932,VALID,0.0169808,VALID,18.2575,VALID,315,VALID,0.0462416,
2001-10-05, 03:13:00,VALID,916.813,VALID,0,VALID,97.9924,VALID,0.0169808,VALID,18.2639,VALID,320,VALID,0.226997,
2001-10-05, 03:14:00,VALID,916.812,VALID,0,VALID,97.9733,VALID,0.0679233,VALID,18.248,VALID,304,VALID,0.371962,
2001-10-05, 03:15:01,VALID,916.809,VALID,0,VALID,98.075,VALID,0.0849042,VALID,18.2415,VALID,277,VALID,0.0905107,
2001-10-05, 03:16:00,VALID,916.809,VALID,0,VALID,98.131,VALID,0.0169808,VALID,18.2222,VALID,277,VALID,0,
2001-10-05, 03:17:01,VALID,916.809,VALID,0,VALID,98.173,VALID,0.0169808,VALID,18.2192,VALID,277,VALID,0,
2001-10-05, 03:18:00,VALID,916.814,VALID,0,VALID,98.2442,VALID,0,VALID,18.2028,VALID,277,VALID,0,
2001-10-05, 03:19:01,VALID,916.805,VALID,0,VALID,98.2671,VALID,0,VALID,18.1901,VALID,277,VALID,0,
2001-10-05, 03:20:01,VALID,916.799,VALID,0,VALID,98.2887,VALID,0.0169808,VALID,18.1571,VALID,278,VALID,0,
2001-10-05, 03:21:01,VALID,916.797,VALID,0,VALID,98.337,VALID,0,VALID,18.1615,VALID,283,VALID,0.0148026,
2001-10-05, 03:22:01,VALID,916.775,VALID,0,VALID,98.3853,VALID,0,VALID,18.1514,VALID,291,VALID,0.0440538,
2001-10-05, 03:23:00,VALID,916.759,VALID,0,VALID,98.3739,VALID,0,VALID,18.1288,VALID,285,VALID,0.318412,
2001-10-05, 03:24:00,VALID,916.74,VALID,0,VALID,98.4082,VALID,0,VALID,18.1126,VALID,339,VALID,0.251563,
2001-10-05, 03:25:01,VALID,916.706,VALID,0,VALID,98.44,VALID,0,VALID,18.1031,VALID,341,VALID,0.0269326,
2001-10-05, 03:26:00,VALID,916.702,VALID,0,VALID,98.4375,VALID,0,VALID,18.0835,VALID,341,VALID,0.03125,
2001-10-05, 03:27:01,VALID,916.689,VALID,0,VALID,98.4654,VALID,0.0169808,VALID,18.0801,VALID,334,VALID,0.0363898,
2001-10-05, 03:28:01,VALID,916.672,VALID,0,VALID,98.4896,VALID,0,VALID,18.0676,VALID,23,VALID,0.198057,
2001-10-05, 03:29:00,VALID,916.661,VALID,0,VALID,98.5036,VALID,0,VALID,18.0545,VALID,294,VALID,0.0904297,
2001-10-05, 03:30:01,VALID,916.655,VALID,0,VALID,98.5252,VALID,0,VALID,18.0642,VALID,290,VALID,0,
2001-10-05, 03:31:01,VALID,916.657,VALID,0,VALID,98.5544,VALID,0.0169808,VALID,18.0543,VALID,290,VALID,0,
2001-10-05, 03:32:01,VALID,916.645,VALID,0,VALID,98.5672,VALID,0,VALID,18.0547,VALID,290,VALID,0,
2001-10-05, 03:33:01,VALID,916.648,VALID,0,VALID,98.6244,VALID,-0.0169808,VALID,18.0674,VALID,354,VALID,0.00337838,
2001-10-05, 03:34:01,VALID,916.641,VALID,0,VALID,98.6371,VALID,0,VALID,18.0743,VALID,40,VALID,0.0255055,